THOR AGENA B DEB, 1951

Orbit data source: Space-Track

THOR AGENA B DEB, 1951 is space debris in LEO originally from a launch on Mon, 29 Nov 1965 UTC launched from the Air Force Western Test Range (AFWTR). Debris objects in space refer to the collection of defunct objects orbiting the Earth. Examples of debris include non-operational satellites, rocket bodies, and fragments generated from explosions, collisions, or faulty payload assembly.

Loading next visibility...
THOR AGENA B DEB details
Identifier
1951, 1965-098G
Orbit
LEO
Last TLE update15 hours ago
Origin
Flag of USGSFC (US)
ManufacturerUnknown
MissionSpacecraft
Bus & MotorUnknown
Mass~1 kg wet, ~1 kg dry
Launch date (UTC)
1965-11-29 (59 years ago)
Launch vehicleUnknown
Launch site
Air Force Western Test Range (AFWTR)
Object type
Payload
Rocket body
Debris
Shape & HBRHalf Cyl + Cone, 1.5 m
Radar Cross Section0.531 m², Medium (>0.1 m² and < 1m²)

Expand to show TLE details & history

TLE from 15 hours ago
0 THOR AGENA B DEB
1 01951U 65098G   25039.93571378  .00006926  00000-0  13192-2 0  9997
2 01951  79.6140 110.0473 0790203  37.9443 327.4745 13.51759991740803
Epoch: 2025-02-08T22:27Z
Definitive object data (Epoch: 2025-02-08T22:27:25.67Z)
Latitude0.00001°
Longitude-6.08611°
Altitude587.391 km
Speed7.807 km/s
True Right ascension07h 20m 11s
True Declination0° 00' 00"
Sunlit
Object was in full shadow at TLE epoch
Visualization TLE readout
Latitude-26.2735°
Longitude178.41084°
Altitude1,653.575 km
Speed6.766 km/s
Apparent Right ascension22h 27m 44s
Apparent Declination-51° 58' 28"
Sunlit
Object is in daylight
Visualization observer readout
Local Sidereal Time15:58:15
Azimuth132.175° SE
Elevation-34.478°
Doppler factor1
Orbital elements
Apogee altitude1,651.109 km
Perigee altitude475.092 km
Semi-major axis7,441.237 km
Eccentricity0.0790203
Inclination79.614°
RAAN110.0473°
Arg. of periapsis37.9443°
True anomaly322.17295°
Mean anomaly327.4745°
Eccentric anomaly324.86915°
Mean motion3.38124 °/min
BSTAR0.0013192
Orbital period106.47 mins
Loading maneuver chart data...
Loading historical data...
Loading historical data...
Loading historical data...
Loading historical data...
Loading historical data...
Loading historical data...
Loading historical data...

THOR AGENA B DEB Visibility forecast

Observer location: undefined°, undefined

Span
Click to sort rows by Start time (UTC) header in descending order
Start Az.
Max El. time (UTC)
Max El. Az.
Max El.
End time (UTC)
End Az.
10 mins2025-02-09 14:58:07.706Z20.878° NNE2025-02-09 15:03:07.706Z77.256° E22.884°2025-02-09 15:08:07.706Z120.327° SE
12 mins2025-02-09 16:46:07.706Z333.523° NNW2025-02-09 16:50:07.706Z275.656° WNW40.116°2025-02-09 16:58:07.706Z187.117° SSW
4 mins2025-02-10 04:48:07.706Z125.251° SE2025-02-10 04:49:07.706Z97.999° ESE23.336°2025-02-10 04:52:07.706Z37.658° NE
|